Time,TemperatureF,DewpointF,PressureIn,WindDirection,WindDirectionDegrees,WindSpeedMPH,WindSpeedGustMPH,Humidity,HourlyPrecipIn,Conditions,Clouds,dailyrainin,SoftwareType,DateUTC
2013-02-19 00:00:00,30.6,11.2,30.22,SE,132,0.0,0.0,44,0.00,,,4.94,VWS V13.01,2013-02-19 05:00:00,
2013-02-19 00:05:00,30.4,11.6,30.22,SE,132,0.0,0.0,45,0.00,,,0.00,VWS V13.01,2013-02-19 05:05:00,
2013-02-19 00:10:00,30.2,11.9,30.22,SE,132,0.0,0.0,46,0.00,,,0.00,VWS V13.01,2013-02-19 05:10:00,
2013-02-19 00:15:00,30.0,11.8,30.22,SE,132,0.0,0.0,46,0.00,,,0.00,VWS V13.01,2013-02-19 05:15:00,
2013-02-19 00:20:00,29.8,12.1,30.22,SE,132,0.0,0.0,47,0.00,,,0.00,VWS V13.01,2013-02-19 05:20:00,
2013-02-19 00:25:00,29.7,12.4,30.22,SE,132,0.0,0.0,48,0.00,,,0.00,VWS V13.01,2013-02-19 05:25:00,
2013-02-19 00:30:00,29.7,12.9,30.22,SE,132,0.0,0.0,49,0.00,,,0.00,VWS V13.01,2013-02-19 05:30:00,
2013-02-19 00:35:00,29.5,13.6,30.22,SE,132,0.0,0.0,51,0.00,,,0.00,VWS V13.01,2013-02-19 05:35:00,
2013-02-19 00:40:00,29.3,13.4,30.22,SE,132,0.0,0.0,51,0.00,,,0.00,VWS V13.01,2013-02-19 05:40:00,
2013-02-19 00:45:00,29.3,13.4,30.22,SE,132,0.0,0.0,51,0.00,,,0.00,VWS V13.01,2013-02-19 05:45:00,
2013-02-19 00:50:00,29.1,13.7,30.22,SE,132,0.0,0.0,52,0.00,,,0.00,VWS V13.01,2013-02-19 05:50:00,
2013-02-19 00:55:00,29.1,13.7,30.22,SE,132,0.0,0.0,52,0.00,,,0.00,VWS V13.01,2013-02-19 05:55:00,
2013-02-19 01:00:00,29.1,13.7,30.19,SE,132,0.0,0.0,52,0.00,,,0.00,VWS V13.01,2013-02-19 06:00:00,
2013-02-19 01:05:00,29.1,13.7,30.19,SE,132,0.0,0.0,52,0.00,,,0.00,VWS V13.01,2013-02-19 06:05:00,
2013-02-19 01:10:00,28.9,13.5,30.19,SE,132,0.0,0.0,52,0.00,,,0.00,VWS V13.01,2013-02-19 06:10:00,
2013-02-19 01:15:00,28.9,13.5,30.19,SE,132,0.0,0.0,52,0.00,,,0.00,VWS V13.01,2013-02-19 06:15:00,
2013-02-19 01:20:00,28.9,14.0,30.19,SE,132,0.0,0.0,53,0.00,,,0.00,VWS V13.01,2013-02-19 06:20:00,
2013-02-19 01:25:00,28.8,13.8,30.19,SE,132,0.0,0.0,53,0.00,,,0.00,VWS V13.01,2013-02-19 06:25:00,
2013-02-19 01:30:00,28.8,13.8,30.19,SE,132,0.0,0.0,53,0.00,,,0.00,VWS V13.01,2013-02-19 06:30:00,
2013-02-19 01:35:00,28.6,13.6,30.19,SE,132,0.0,0.0,53,0.00,,,0.00,VWS V13.01,2013-02-19 06:35:00,
2013-02-19 01:40:00,28.6,14.1,30.19,SE,132,0.0,0.0,54,0.00,,,0.00,VWS V13.01,2013-02-19 06:40:00,
2013-02-19 01:45:00,28.6,14.1,30.19,SE,132,0.0,0.0,54,0.00,,,0.00,VWS V13.01,2013-02-19 06:45:00,
2013-02-19 01:50:00,28.4,14.3,30.19,SE,132,0.0,0.0,55,0.00,,,0.00,VWS V13.01,2013-02-19 06:50:00,
2013-02-19 01:55:00,28.4,14.3,30.19,SE,132,0.0,0.0,55,0.00,,,0.00,VWS V13.01,2013-02-19 06:55:00,
2013-02-19 02:00:00,28.4,14.3,30.19,SE,132,0.0,0.0,55,0.00,,,0.00,VWS V13.01,2013-02-19 07:00:00,
2013-02-19 02:05:00,28.2,14.1,30.19,SE,132,0.0,0.0,55,0.00,,,0.00,VWS V13.01,2013-02-19 07:05:00,
2013-02-19 02:10:00,28.2,14.1,30.19,SE,132,0.0,0.0,55,0.00,,,0.00,VWS V13.01,2013-02-19 07:10:00,
2013-02-19 02:15:00,28.2,14.6,30.16,SE,132,0.0,0.0,56,0.00,,,0.00,VWS V13.01,2013-02-19 07:15:00,
2013-02-19 02:20:00,28.0,14.4,30.16,SE,132,0.0,0.0,56,0.00,,,0.00,VWS V13.01,2013-02-19 07:20:00,
2013-02-19 02:25:00,28.0,14.4,30.16,SE,132,0.0,0.0,56,0.00,,,0.00,VWS V13.01,2013-02-19 07:25:00,
2013-02-19 02:30:00,27.9,14.2,30.16,SE,132,0.0,0.0,56,0.00,,,0.00,VWS V13.01,2013-02-19 07:30:00,
2013-02-19 02:35:00,27.9,14.2,30.16,SE,132,0.0,0.0,56,0.00,,,0.00,VWS V13.01,2013-02-19 07:35:00,
2013-02-19 02:40:00,27.9,14.2,30.16,SE,132,0.0,0.0,56,0.00,,,0.00,VWS V13.01,2013-02-19 07:40:00,
2013-02-19 02:45:00,27.9,13.8,30.16,SE,132,0.0,0.0,55,0.00,,,0.00,VWS V13.01,2013-02-19 07:45:00,
2013-02-19 02:50:00,27.9,13.8,30.16,SE,132,0.0,0.0,55,0.00,,,0.00,VWS V13.01,2013-02-19 07:50:00,
2013-02-19 02:55:00,27.9,13.8,30.16,SE,132,0.0,0.0,55,0.00,,,0.00,VWS V13.01,2013-02-19 07:55:00,
2013-02-19 03:00:00,27.9,14.2,30.16,SE,132,0.0,0.0,56,0.00,,,0.00,VWS V13.01,2013-02-19 08:00:00,
2013-02-19 03:05:00,27.7,14.0,30.16,SE,132,0.0,0.0,56,0.00,,,0.00,VWS V13.01,2013-02-19 08:05:00,
2013-02-19 03:10:00,27.7,14.0,30.16,SE,132,0.0,0.0,56,0.00,,,0.00,VWS V13.01,2013-02-19 08:10:00,
2013-02-19 03:15:00,27.7,14.4,30.13,SE,132,0.0,0.0,57,0.00,,,0.00,VWS V13.01,2013-02-19 08:15:00,
2013-02-19 03:20:00,27.5,14.3,30.13,SE,132,0.0,0.0,57,0.00,,,0.00,VWS V13.01,2013-02-19 08:20:00,
2013-02-19 03:25:00,27.5,14.3,30.13,SE,132,0.0,0.0,57,0.00,,,0.00,VWS V13.01,2013-02-19 08:25:00,
2013-02-19 03:30:00,27.5,14.3,30.13,SE,132,0.0,0.0,57,0.00,,,0.00,VWS V13.01,2013-02-19 08:30:00,
2013-02-19 03:35:00,27.3,14.5,30.13,SE,132,0.0,0.0,58,0.00,,,0.00,VWS V13.01,2013-02-19 08:35:00,
2013-02-19 03:40:00,27.3,14.5,30.13,SE,132,0.0,0.0,58,0.00,,,0.00,VWS V13.01,2013-02-19 08:40:00,
2013-02-19 03:45:00,27.3,14.5,30.13,SE,132,0.0,0.0,58,0.00,,,0.00,VWS V13.01,2013-02-19 08:45:00,
2013-02-19 03:50:00,27.3,14.1,30.13,SE,132,0.0,0.0,57,0.00,,,0.00,VWS V13.01,2013-02-19 08:50:00,
2013-02-19 03:55:00,27.3,14.1,30.13,SE,132,0.0,0.0,57,0.00,,,0.00,VWS V13.01,2013-02-19 08:55:00,
2013-02-19 04:00:00,27.3,14.5,30.13,SE,132,0.0,0.0,58,0.00,,,0.00,VWS V13.01,2013-02-19 09:00:00,
2013-02-19 04:05:00,27.1,14.7,30.13,SE,132,0.0,0.0,59,0.00,,,0.00,VWS V13.01,2013-02-19 09:05:00,
2013-02-19 04:10:00,27.1,14.7,30.13,SE,132,0.0,0.0,59,0.00,,,0.00,VWS V13.01,2013-02-19 09:10:00,
2013-02-19 04:15:00,27.3,14.5,30.13,SE,132,0.0,0.0,58,0.00,,,0.00,VWS V13.01,2013-02-19 09:15:00,
2013-02-19 04:20:00,27.3,14.5,30.13,SE,132,0.0,0.0,58,0.00,,,0.00,VWS V13.01,2013-02-19 09:20:00,
2013-02-19 04:25:00,27.1,14.3,30.13,SE,132,0.0,0.0,58,0.00,,,0.00,VWS V13.01,2013-02-19 09:25:00,
2013-02-19 04:30:00,27.1,14.7,30.13,SE,132,0.0,0.0,59,0.00,,,0.00,VWS V13.01,2013-02-19 09:30:00,
2013-02-19 04:35:00,27.0,14.6,30.13,SE,132,0.0,0.0,59,0.00,,,0.00,VWS V13.01,2013-02-19 09:35:00,
2013-02-19 04:40:00,27.0,14.2,30.13,SE,132,0.0,0.0,58,0.00,,,0.00,VWS V13.01,2013-02-19 09:40:00,
2013-02-19 04:45:00,26.8,14.8,30.13,SE,132,0.0,0.0,60,0.00,,,0.00,VWS V13.01,2013-02-19 09:45:00,
2013-02-19 04:50:00,26.8,14.8,30.13,SE,132,0.0,0.0,60,0.00,,,0.00,VWS V13.01,2013-02-19 09:50:00,
2013-02-19 04:55:00,26.8,14.4,30.13,SE,132,0.0,0.0,59,0.00,,,0.00,VWS V13.01,2013-02-19 09:55:00,
2013-02-19 05:00:00,26.8,14.8,30.13,SE,132,0.0,0.0,60,0.00,,,0.00,VWS V13.01,2013-02-19 10:00:00,
2013-02-19 05:05:00,26.8,15.1,30.10,SE,132,0.0,0.0,61,0.00,,,0.00,VWS V13.01,2013-02-19 10:05:00,
2013-02-19 05:10:00,26.6,15.4,30.10,SE,132,0.0,0.0,62,0.00,,,0.00,VWS V13.01,2013-02-19 10:10:00,
2013-02-19 05:15:00,26.6,15.4,30.10,SE,132,0.0,0.0,62,0.00,,,0.00,VWS V13.01,2013-02-19 10:15:00,
2013-02-19 05:20:00,26.6,15.0,30.10,SE,132,0.0,0.0,61,0.00,,,0.00,VWS V13.01,2013-02-19 10:20:00,
2013-02-19 05:25:00,26.6,15.0,30.10,SE,132,0.0,0.0,61,0.00,,,0.00,VWS V13.01,2013-02-19 10:25:00,
2013-02-19 05:30:00,26.6,15.0,30.10,SE,132,0.0,0.0,61,0.00,,,0.00,VWS V13.01,2013-02-19 10:30:00,
2013-02-19 05:35:00,26.6,15.0,30.10,SE,132,0.0,0.0,61,0.00,,,0.00,VWS V13.01,2013-02-19 10:35:00,
2013-02-19 05:40:00,26.8,14.8,30.10,SE,132,0.0,0.0,60,0.00,,,0.00,VWS V13.01,2013-02-19 10:40:00,
2013-02-19 05:45:00,26.8,14.8,30.10,SE,132,0.0,0.0,60,0.00,,,0.00,VWS V13.01,2013-02-19 10:45:00,
2013-02-19 05:49:00,26.6,15.0,30.07,SE,132,0.0,0.0,61,0.00,,,0.00,VWS V13.01,2013-02-19 10:49:00,
2013-02-19 05:54:00,26.4,14.8,30.07,SE,132,0.0,0.0,61,0.00,,,0.00,VWS V13.01,2013-02-19 10:54:00,
2013-02-19 05:59:00,26.4,15.2,30.07,SE,132,0.0,0.0,62,0.00,,,0.00,VWS V13.01,2013-02-19 10:59:00,
2013-02-19 06:00:00,23.7,16.6,30.08,North,-999,0.0,0.0,74,0.00,,,-99.99,WeatherLink 5.9.3,2013-02-19 11:00:00,
2013-02-19 06:04:00,26.2,15.4,30.07,SE,132,0.0,0.0,63,0.00,,,0.00,VWS V13.01,2013-02-19 11:04:00,
2013-02-19 06:09:00,26.2,15.4,30.07,SE,132,0.0,0.0,63,0.00,,,0.00,VWS V13.01,2013-02-19 11:09:00,
2013-02-19 06:14:00,26.2,15.4,30.07,SE,132,0.0,0.0,63,0.00,,,0.00,VWS V13.01,2013-02-19 11:14:00,
2013-02-19 06:19:00,26.2,15.4,30.07,SE,132,0.0,0.0,63,0.00,,,0.00,VWS V13.01,2013-02-19 11:19:00,
2013-02-19 06:24:00,26.2,15.4,30.07,SE,132,0.0,0.0,63,0.00,,,0.00,VWS V13.01,2013-02-19 11:24:00,
2013-02-19 06:29:00,26.2,15.4,30.07,SE,132,0.0,0.0,63,0.00,,,0.00,VWS V13.01,2013-02-19 11:29:00,
2013-02-19 06:30:00,23.5,16.7,30.08,North,-999,0.0,0.0,75,0.00,,,-99.99,WeatherLink 5.9.3,2013-02-19 11:30:00,
2013-02-19 06:34:00,26.2,15.7,30.07,SE,132,0.0,0.0,64,0.00,,,0.00,VWS V13.01,2013-02-19 11:34:00,
2013-02-19 06:39:00,26.2,15.7,30.07,SE,132,0.0,0.0,64,0.00,,,0.00,VWS V13.01,2013-02-19 11:39:00,
2013-02-19 06:44:00,26.4,15.9,30.04,SE,132,0.0,0.0,64,0.00,,,0.00,VWS V13.01,2013-02-19 11:44:00,
2013-02-19 06:49:00,26.4,16.3,30.04,SE,132,0.0,0.0,65,0.00,,,0.00,VWS V13.01,2013-02-19 11:49:00,
2013-02-19 06:54:00,26.4,16.3,30.04,SE,132,0.0,0.0,65,0.00,,,0.00,VWS V13.01,2013-02-19 11:54:00,
2013-02-19 06:59:00,26.4,16.3,30.04,SE,132,0.0,0.0,65,0.00,,,0.00,VWS V13.01,2013-02-19 11:59:00,
2013-02-19 07:00:00,23.6,17.4,30.06,North,-999,0.0,0.0,77,0.00,,,-99.99,WeatherLink 5.9.3,2013-02-19 12:00:00,
2013-02-19 07:04:00,26.4,16.6,30.04,SE,132,0.0,0.0,66,0.00,,,0.00,VWS V13.01,2013-02-19 12:04:00,
2013-02-19 07:09:00,26.6,16.8,30.04,SE,132,0.0,0.0,66,0.00,,,0.00,VWS V13.01,2013-02-19 12:09:00,
2013-02-19 07:14:00,26.8,16.6,30.04,SE,132,0.0,0.0,65,0.00,,,0.00,VWS V13.01,2013-02-19 12:14:00,
2013-02-19 07:19:00,27.0,16.8,30.07,SE,132,0.0,0.0,65,0.00,,,0.00,VWS V13.01,2013-02-19 12:19:00,
2013-02-19 07:24:00,27.3,17.1,30.07,SE,132,0.0,0.0,65,0.00,,,0.00,VWS V13.01,2013-02-19 12:24:00,
2013-02-19 07:29:00,27.9,17.6,30.04,SE,132,0.0,0.0,65,0.00,,,0.00,VWS V13.01,2013-02-19 12:29:00,
2013-02-19 07:30:00,24.5,18.3,30.06,North,-999,0.0,0.0,77,0.00,,,-99.99,WeatherLink 5.9.3,2013-02-19 12:30:00,
2013-02-19 07:34:00,28.0,18.2,30.04,SE,132,0.0,0.0,66,0.00,,,0.00,VWS V13.01,2013-02-19 12:34:00,
2013-02-19 07:39:00,28.4,18.1,30.04,SE,132,0.0,0.0,65,0.00,,,0.00,VWS V13.01,2013-02-19 12:39:00,
2013-02-19 07:44:00,28.8,18.1,30.04,SE,132,0.0,0.0,64,0.00,,,0.00,VWS V13.01,2013-02-19 12:44:00,
2013-02-19 07:49:00,28.9,18.3,30.07,SE,132,0.0,0.0,64,0.00,,,0.00,VWS V13.01,2013-02-19 12:49:00,
2013-02-19 07:54:00,29.5,19.2,30.07,SE,132,0.0,0.0,65,0.00,,,0.00,VWS V13.01,2013-02-19 12:54:00,
2013-02-19 07:59:00,30.0,19.3,30.07,SE,132,0.0,0.0,64,0.00,,,0.00,VWS V13.01,2013-02-19 12:59:00,
2013-02-19 08:00:00,27.1,19.9,30.07,North,-999,0.0,0.0,74,0.00,,,-99.99,WeatherLink 5.9.3,2013-02-19 13:00:00,
2013-02-19 08:04:00,30.6,19.9,30.07,SE,132,0.0,0.0,64,0.00,,,0.00,VWS V13.01,2013-02-19 13:04:00,
2013-02-19 08:09:00,31.3,20.5,30.07,SE,132,0.0,0.0,64,0.00,,,0.00,VWS V13.01,2013-02-19 13:09:00,
2013-02-19 08:14:00,32.0,20.1,30.07,SE,132,0.0,0.0,61,0.00,,,0.00,VWS V13.01,2013-02-19 13:14:00,
2013-02-19 08:19:00,32.5,19.8,30.04,SE,132,0.0,0.0,59,0.00,,,0.00,VWS V13.01,2013-02-19 13:19:00,
2013-02-19 08:24:00,32.9,19.8,30.04,SE,132,0.0,0.0,58,0.00,,,0.00,VWS V13.01,2013-02-19 13:24:00,
2013-02-19 08:29:00,33.3,20.5,30.04,SE,132,0.0,0.0,59,0.00,,,0.00,VWS V13.01,2013-02-19 13:29:00,
2013-02-19 08:30:00,30.7,21.4,30.04,SSE,157,0.0,1.0,68,0.00,,,-99.99,WeatherLink 5.9.3,2013-02-19 13:30:00,
2013-02-19 08:34:00,33.6,20.4,30.04,SE,132,0.0,0.0,58,0.00,,,0.00,VWS V13.01,2013-02-19 13:34:00,
2013-02-19 08:39:00,34.0,20.4,30.04,SE,132,0.0,0.0,57,0.00,,,0.00,VWS V13.01,2013-02-19 13:39:00,
2013-02-19 08:44:00,34.3,20.3,30.04,SE,132,0.0,0.0,56,0.00,,,0.00,VWS V13.01,2013-02-19 13:44:00,
2013-02-19 08:49:00,34.5,19.6,30.04,SE,132,0.0,0.0,54,0.00,,,0.00,VWS V13.01,2013-02-19 13:49:00,
2013-02-19 08:54:00,34.9,19.9,30.04,SE,132,0.0,2.7,54,0.00,,,0.00,VWS V13.01,2013-02-19 13:54:00,
2013-02-19 08:59:00,35.1,20.1,30.04,SE,132,0.0,2.2,54,0.00,,,0.00,VWS V13.01,2013-02-19 13:59:00,
2013-02-19 09:00:00,33.1,23.0,30.03,South,180,0.0,2.0,66,0.00,,,-99.99,WeatherLink 5.9.3,2013-02-19 14:00:00,
2013-02-19 09:04:00,35.2,20.3,30.01,SE,132,0.0,0.0,54,0.00,,,0.00,VWS V13.01,2013-02-19 14:04:00,
2013-02-19 09:09:00,35.6,20.2,30.01,SE,132,0.0,0.0,53,0.00,,,0.00,VWS V13.01,2013-02-19 14:09:00,
2013-02-19 09:14:00,35.8,20.8,30.01,SE,132,0.0,0.0,54,0.00,,,0.00,VWS V13.01,2013-02-19 14:14:00,
2013-02-19 09:19:00,36.1,20.7,30.01,SE,132,0.0,0.0,53,0.00,,,0.00,VWS V13.01,2013-02-19 14:19:00,
2013-02-19 09:24:00,36.5,21.0,30.01,SE,132,0.0,0.0,53,0.00,,,0.00,VWS V13.01,2013-02-19 14:24:00,
2013-02-19 09:29:00,36.9,21.3,30.01,SE,132,2.7,2.7,53,0.00,,,0.00,VWS V13.01,2013-02-19 14:29:00,
2013-02-19 09:30:00,35.1,23.4,30.02,SW,225,0.0,2.0,62,0.00,,,-99.99,WeatherLink 5.9.3,2013-02-19 14:30:00,
2013-02-19 09:34:00,37.0,21.5,30.01,SE,132,0.0,3.6,53,0.00,,,0.00,VWS V13.01,2013-02-19 14:34:00,
2013-02-19 09:39:00,37.2,21.7,30.01,East,87,0.0,3.1,53,0.00,,,0.00,VWS V13.01,2013-02-19 14:39:00,
2013-02-19 09:44:00,37.6,21.6,30.01,ESE,119,0.0,0.0,52,0.00,,,0.00,VWS V13.01,2013-02-19 14:44:00,
2013-02-19 09:49:00,37.9,21.9,29.98,ESE,119,0.0,0.0,52,0.00,,,0.00,VWS V13.01,2013-02-19 14:49:00,
2013-02-19 09:54:00,38.5,22.4,29.98,ESE,119,0.0,0.0,52,0.00,,,0.00,VWS V13.01,2013-02-19 14:54:00,
2013-02-19 09:59:00,38.7,22.6,29.98,ESE,119,0.0,0.0,52,0.00,,,0.00,VWS V13.01,2013-02-19 14:59:00,
2013-02-19 10:00:00,37.4,24.8,29.99,SSW,202,0.0,3.0,60,0.00,,,-99.99,WeatherLink 5.9.3,2013-02-19 15:00:00,
2013-02-19 10:04:00,38.8,22.3,29.98,ESE,121,0.0,3.1,51,0.00,,,0.00,VWS V13.01,2013-02-19 15:04:00,
2013-02-19 10:09:00,39.0,22.9,29.98,SW,227,2.7,2.7,52,0.00,,,0.00,VWS V13.01,2013-02-19 15:09:00,
2013-02-19 10:14:00,39.4,22.8,29.98,SE,145,0.0,3.6,51,0.00,,,0.00,VWS V13.01,2013-02-19 15:14:00,
2013-02-19 10:19:00,39.7,23.1,29.98,South,169,3.1,3.1,51,0.00,,,0.00,VWS V13.01,2013-02-19 15:19:00,
2013-02-19 10:24:00,40.3,23.1,29.98,South,172,0.0,3.1,50,0.00,,,0.00,VWS V13.01,2013-02-19 15:24:00,
2013-02-19 10:29:00,41.0,24.3,29.98,SE,139,0.0,0.0,51,0.00,,,0.00,VWS V13.01,2013-02-19 15:29:00,
2013-02-19 10:30:00,39.2,25.6,29.97,WSW,247,0.0,3.0,58,0.00,,,-99.99,WeatherLink 5.9.3,2013-02-19 15:30:00,
2013-02-19 10:34:00,41.9,24.1,29.95,SSE,157,0.0,3.1,49,0.00,,,0.00,VWS V13.01,2013-02-19 15:34:00,
2013-02-19 10:39:00,42.3,24.5,29.95,East,79,2.7,3.6,49,0.00,,,0.00,VWS V13.01,2013-02-19 15:39:00,
2013-02-19 10:44:00,42.6,24.8,29.95,East,91,0.0,0.0,49,0.00,,,0.00,VWS V13.01,2013-02-19 15:44:00,
2013-02-19 10:49:00,43.3,25.5,29.95,East,87,2.2,2.7,49,0.00,,,0.00,VWS V13.01,2013-02-19 15:49:00,
2013-02-19 10:54:00,43.9,25.5,29.95,WSW,254,3.1,4.0,48,0.00,,,0.00,VWS V13.01,2013-02-19 15:54:00,
2013-02-19 10:59:00,44.2,25.3,29.95,SE,140,2.7,3.6,47,0.00,,,0.00,VWS V13.01,2013-02-19 15:59:00,
2013-02-19 11:00:00,42.7,26.3,29.97,ESE,112,0.0,5.0,52,0.00,,,-99.99,WeatherLink 5.9.3,2013-02-19 16:00:00,
2013-02-19 11:04:00,44.6,25.1,29.95,SE,126,0.0,5.4,46,0.00,,,0.00,VWS V13.01,2013-02-19 16:04:00,
2013-02-19 11:09:00,45.0,25.4,29.95,SSE,168,2.7,2.7,46,0.00,,,0.00,VWS V13.01,2013-02-19 16:09:00,
2013-02-19 11:14:00,45.1,25.6,29.95,SSE,147,2.7,4.0,46,0.00,,,0.00,VWS V13.01,2013-02-19 16:14:00,
2013-02-19 11:19:00,45.3,25.2,29.95,South,186,3.1,3.1,45,0.00,,,0.00,VWS V13.01,2013-02-19 16:19:00,
2013-02-19 11:24:00,45.7,25.6,29.95,SE,131,2.7,4.0,45,0.00,,,0.00,VWS V13.01,2013-02-19 16:24:00,
2013-02-19 11:29:00,45.7,26.1,29.95,SE,146,2.2,3.6,46,0.00,,,0.00,VWS V13.01,2013-02-19 16:29:00,
2013-02-19 11:30:00,44.7,28.1,29.95,SSW,202,1.0,5.0,52,0.00,,,-99.99,WeatherLink 5.9.3,2013-02-19 16:30:00,
2013-02-19 11:34:00,45.9,27.3,29.92,SE,130,0.0,3.1,48,0.00,,,0.00,VWS V13.01,2013-02-19 16:34:00,
2013-02-19 11:39:00,46.0,26.4,29.92,SSE,153,0.0,3.6,46,0.00,,,0.00,VWS V13.01,2013-02-19 16:39:00,
2013-02-19 11:44:00,46.0,27.0,29.92,SSW,196,0.0,2.2,47,0.00,,,0.00,VWS V13.01,2013-02-19 16:44:00,
2013-02-19 11:49:00,46.6,27.5,29.92,ESE,102,4.9,4.9,47,0.00,,,0.00,VWS V13.01,2013-02-19 16:49:00,
2013-02-19 11:54:00,46.6,28.0,29.92,SSE,160,0.0,3.6,48,0.00,,,0.00,VWS V13.01,2013-02-19 16:54:00,
2013-02-19 11:59:00,46.8,27.6,29.92,SE,131,0.0,2.7,47,0.00,,,0.00,VWS V13.01,2013-02-19 16:59:00,
2013-02-19 12:00:00,45.8,29.6,29.93,SW,225,1.0,5.0,53,0.00,,,-99.99,WeatherLink 5.9.3,2013-02-19 17:00:00,
2013-02-19 12:04:00,46.9,27.8,29.92,SW,229,3.1,4.0,47,0.00,,,0.00,VWS V13.01,2013-02-19 17:04:00,
2013-02-19 12:09:00,47.1,27.9,29.92,SSW,206,3.6,3.6,47,0.00,,,0.00,VWS V13.01,2013-02-19 17:09:00,
2013-02-19 12:14:00,47.1,27.9,29.92,South,189,3.1,5.8,47,0.00,,,0.00,VWS V13.01,2013-02-19 17:14:00,
2013-02-19 12:19:00,46.8,28.6,29.89,SSW,212,3.1,3.1,49,0.00,,,0.00,VWS V13.01,2013-02-19 17:19:00,
2013-02-19 12:24:00,45.3,31.9,29.89,NE,46,5.4,12.3,59,0.00,,,0.00,VWS V13.01,2013-02-19 17:24:00,
2013-02-19 12:29:00,43.5,33.7,29.89,WSW,246,3.1,7.6,68,0.00,,,0.00,VWS V13.01,2013-02-19 17:29:00,
2013-02-19 12:30:00,45.9,38.4,29.93,West,270,2.0,11.0,75,0.00,,,-99.99,WeatherLink 5.9.3,2013-02-19 17:30:00,
2013-02-19 12:34:00,42.4,35.4,29.92,SW,226,3.6,5.4,76,0.00,,,0.00,VWS V13.01,2013-02-19 17:34:00,
2013-02-19 12:39:00,42.1,36.0,29.92,West,271,3.6,7.6,79,0.00,,,0.00,VWS V13.01,2013-02-19 17:39:00,
2013-02-19 12:44:00,41.7,36.0,29.92,SE,146,2.7,2.7,80,2.47,,,2.47,VWS V13.01,2013-02-19 17:44:00,
2013-02-19 12:49:00,41.5,37.1,29.89,SE,145,0.0,2.7,84,2.47,,,2.47,VWS V13.01,2013-02-19 17:49:00,
2013-02-19 12:54:00,41.2,37.0,29.89,SW,225,0.0,2.7,85,2.47,,,2.47,VWS V13.01,2013-02-19 17:54:00,
2013-02-19 12:59:00,41.0,37.4,29.89,SW,225,0.0,2.2,87,2.47,,,2.47,VWS V13.01,2013-02-19 17:59:00,
2013-02-19 13:04:00,41.0,37.4,29.89,WSW,248,0.0,3.1,87,2.47,,,2.47,VWS V13.01,2013-02-19 18:04:00,
2013-02-19 13:09:00,41.0,37.7,29.89,South,182,0.0,5.8,88,2.47,,,2.47,VWS V13.01,2013-02-19 18:09:00,
2013-02-19 13:14:00,40.8,37.8,29.89,South,171,0.0,2.7,89,2.47,,,2.47,VWS V13.01,2013-02-19 18:14:00,
2013-02-19 13:19:00,40.8,37.8,29.86,NW,323,0.0,2.2,89,2.47,,,2.47,VWS V13.01,2013-02-19 18:19:00,
2013-02-19 13:24:00,40.8,38.1,29.86,WNW,298,0.0,0.0,90,2.47,,,2.47,VWS V13.01,2013-02-19 18:24:00,
2013-02-19 13:29:00,40.8,38.7,29.86,WNW,293,0.0,0.0,92,2.47,,,2.47,VWS V13.01,2013-02-19 18:29:00,
2013-02-19 13:34:00,40.8,39.0,29.83,West,264,0.0,3.1,93,2.47,,,2.47,VWS V13.01,2013-02-19 18:34:00,
2013-02-19 13:38:00,40.8,39.2,29.83,West,264,0.0,0.0,94,2.47,,,2.47,VWS V13.01,2013-02-19 18:38:00,
2013-02-19 13:43:00,41.0,39.4,29.83,West,264,0.0,0.0,94,2.47,,,2.47,VWS V13.01,2013-02-19 18:43:00,
2013-02-19 13:48:00,41.0,40.0,29.83,West,264,0.0,2.2,96,0.00,,,2.47,VWS V13.01,2013-02-19 18:48:00,
2013-02-19 13:53:00,41.0,40.0,29.83,West,263,0.0,0.0,96,0.00,,,2.47,VWS V13.01,2013-02-19 18:53:00,
2013-02-19 13:58:00,41.0,40.2,29.83,West,263,0.0,2.2,97,0.00,,,2.47,VWS V13.01,2013-02-19 18:58:00,
2013-02-19 14:03:00,41.0,40.2,29.83,West,264,0.0,0.0,97,0.00,,,2.47,VWS V13.01,2013-02-19 19:03:00,
2013-02-19 14:08:00,41.0,40.2,29.83,West,264,0.0,2.2,97,0.00,,,2.47,VWS V13.01,2013-02-19 19:08:00,
2013-02-19 14:13:00,41.0,40.5,29.83,West,264,0.0,0.0,98,0.00,,,2.47,VWS V13.01,2013-02-19 19:13:00,
2013-02-19 14:18:00,41.0,40.5,29.80,West,264,0.0,0.0,98,0.00,,,2.47,VWS V13.01,2013-02-19 19:18:00,
2013-02-19 14:23:00,41.0,40.5,29.80,West,264,0.0,0.0,98,0.00,,,2.47,VWS V13.01,2013-02-19 19:23:00,
2013-02-19 14:28:00,41.0,40.7,29.80,West,264,0.0,0.0,99,0.00,,,2.47,VWS V13.01,2013-02-19 19:28:00,
2013-02-19 14:33:00,41.0,40.7,29.80,West,264,0.0,0.0,99,0.00,,,2.47,VWS V13.01,2013-02-19 19:33:00,
2013-02-19 14:38:00,41.2,40.9,29.80,West,264,0.0,0.0,99,0.00,,,2.47,VWS V13.01,2013-02-19 19:38:00,
2013-02-19 14:43:00,41.2,41.2,29.80,West,264,0.0,0.0,100,0.00,,,2.47,VWS V13.01,2013-02-19 19:43:00,
2013-02-19 14:48:00,41.0,41.0,29.77,West,264,0.0,0.0,100,0.00,,,2.47,VWS V13.01,2013-02-19 19:48:00,
2013-02-19 14:53:00,41.2,41.2,29.77,West,264,0.0,0.0,100,0.00,,,2.47,VWS V13.01,2013-02-19 19:53:00,
2013-02-19 14:58:00,41.2,41.2,29.77,West,263,0.0,0.0,100,0.00,,,2.47,VWS V13.01,2013-02-19 19:58:00,
2013-02-19 15:03:00,41.2,41.2,29.77,West,264,0.0,0.0,100,0.00,,,2.47,VWS V13.01,2013-02-19 20:03:00,
2013-02-19 15:08:00,41.2,41.2,29.77,West,264,0.0,0.0,100,0.00,,,2.47,VWS V13.01,2013-02-19 20:08:00,
2013-02-19 15:13:00,41.4,41.4,29.77,West,264,0.0,0.0,100,0.00,,,2.47,VWS V13.01,2013-02-19 20:13:00,
2013-02-19 15:18:00,41.5,41.5,29.74,West,264,0.0,0.0,100,0.00,,,2.47,VWS V13.01,2013-02-19 20:18:00,
2013-02-19 15:23:00,41.5,41.5,29.74,West,264,0.0,0.0,100,0.00,,,2.47,VWS V13.01,2013-02-19 20:23:00,
2013-02-19 15:28:00,41.7,41.7,29.74,West,264,0.0,0.0,100,0.00,,,2.47,VWS V13.01,2013-02-19 20:28:00,
2013-02-19 15:33:00,41.9,41.9,29.74,WSW,256,0.0,0.0,100,0.00,,,2.47,VWS V13.01,2013-02-19 20:33:00,
2013-02-19 15:38:00,42.1,42.1,29.74,WSW,255,0.0,0.0,100,0.00,,,2.47,VWS V13.01,2013-02-19 20:38:00,
2013-02-19 15:43:00,42.1,42.1,29.74,WSW,255,0.0,0.0,100,0.00,,,2.47,VWS V13.01,2013-02-19 20:43:00,
2013-02-19 15:48:00,42.4,42.4,29.71,SW,221,2.2,2.7,100,0.00,,,2.47,VWS V13.01,2013-02-19 20:48:00,
2013-02-19 15:53:00,42.6,42.6,29.71,SSW,213,0.0,3.1,100,0.00,,,2.47,VWS V13.01,2013-02-19 20:53:00,
2013-02-19 15:58:00,42.6,42.6,29.71,SW,215,2.7,2.7,100,0.00,,,2.47,VWS V13.01,2013-02-19 20:58:00,
2013-02-19 16:03:00,42.6,42.6,29.71,SW,216,2.7,3.6,100,0.00,,,2.47,VWS V13.01,2013-02-19 21:03:00,
2013-02-19 16:08:00,43.3,43.3,29.71,SSW,212,2.2,2.7,100,0.00,,,2.47,VWS V13.01,2013-02-19 21:08:00,
2013-02-19 16:13:00,43.3,43.3,29.71,SSW,202,0.0,6.7,100,0.00,,,2.47,VWS V13.01,2013-02-19 21:13:00,
2013-02-19 16:18:00,43.5,43.5,29.71,SSW,194,3.1,3.1,100,0.00,,,2.47,VWS V13.01,2013-02-19 21:18:00,
2013-02-19 16:23:00,43.3,43.3,29.71,SW,225,3.6,3.6,100,0.00,,,2.47,VWS V13.01,2013-02-19 21:23:00,
2013-02-19 16:28:00,43.3,43.3,29.71,WSW,243,0.0,0.0,100,0.00,,,2.47,VWS V13.01,2013-02-19 21:28:00,
2013-02-19 16:33:00,43.2,43.2,29.68,WSW,243,0.0,0.0,100,0.00,,,2.47,VWS V13.01,2013-02-19 21:33:00,
2013-02-19 16:38:00,43.2,43.2,29.68,WSW,243,0.0,0.0,100,0.00,,,2.47,VWS V13.01,2013-02-19 21:38:00,
2013-02-19 16:43:00,43.3,43.3,29.68,WSW,240,2.2,2.2,100,0.00,,,2.47,VWS V13.01,2013-02-19 21:43:00,
2013-02-19 16:48:00,43.3,43.3,29.68,SW,221,0.0,3.6,100,0.00,,,2.47,VWS V13.01,2013-02-19 21:48:00,
2013-02-19 16:53:00,43.3,43.3,29.68,WSW,252,0.0,3.1,100,0.00,,,2.47,VWS V13.01,2013-02-19 21:53:00,
2013-02-19 16:58:00,43.5,43.5,29.68,WSW,252,0.0,0.0,100,0.00,,,2.47,VWS V13.01,2013-02-19 21:58:00,
2013-02-19 17:03:00,43.5,43.5,29.68,SW,234,0.0,2.7,100,0.00,,,2.47,VWS V13.01,2013-02-19 22:03:00,
2013-02-19 17:08:00,43.5,43.5,29.68,SW,233,0.0,0.0,100,0.00,,,2.47,VWS V13.01,2013-02-19 22:08:00,
2013-02-19 17:13:00,43.5,43.5,29.68,SW,224,0.0,3.6,100,0.00,,,2.47,VWS V13.01,2013-02-19 22:13:00,
2013-02-19 17:18:00,43.5,43.5,29.68,SSE,158,0.0,3.6,100,0.00,,,2.47,VWS V13.01,2013-02-19 22:18:00,
2013-02-19 17:23:00,43.7,43.7,29.68,SW,220,0.0,2.7,100,0.00,,,2.47,VWS V13.01,2013-02-19 22:23:00,
2013-02-19 17:28:00,43.7,43.7,29.68,South,178,2.7,3.6,100,0.00,,,2.47,VWS V13.01,2013-02-19 22:28:00,
2013-02-19 17:33:00,43.7,43.7,29.68,SW,215,0.0,2.7,100,0.00,,,2.47,VWS V13.01,2013-02-19 22:33:00,
2013-02-19 17:38:00,43.7,43.7,29.68,SW,230,0.0,3.1,100,0.00,,,2.47,VWS V13.01,2013-02-19 22:38:00,
2013-02-19 17:43:00,43.5,43.5,29.68,SW,230,0.0,0.0,100,0.00,,,2.47,VWS V13.01,2013-02-19 22:43:00,
2013-02-19 17:48:00,43.5,43.5,29.68,SW,230,0.0,0.0,100,0.00,,,2.47,VWS V13.01,2013-02-19 22:48:00,
2013-02-19 17:53:00,43.5,43.5,29.68,SW,230,0.0,2.7,100,0.00,,,2.47,VWS V13.01,2013-02-19 22:53:00,
2013-02-19 17:58:00,43.5,43.5,29.68,SW,230,0.0,0.0,100,0.00,,,2.47,VWS V13.01,2013-02-19 22:58:00,
2013-02-19 18:03:00,43.5,43.5,29.68,WSW,249,0.0,4.0,100,0.00,,,2.47,VWS V13.01,2013-02-19 23:03:00,
2013-02-19 18:08:00,43.5,43.5,29.68,SW,214,0.0,2.2,100,0.00,,,2.47,VWS V13.01,2013-02-19 23:08:00,
2013-02-19 18:13:00,43.3,43.3,29.68,SSW,210,0.0,2.2,100,0.00,,,2.47,VWS V13.01,2013-02-19 23:13:00,
2013-02-19 18:18:00,43.3,43.3,29.68,SSE,160,0.0,0.0,100,0.00,,,2.47,VWS V13.01,2013-02-19 23:18:00,
2013-02-19 18:23:00,43.3,43.3,29.68,SW,214,0.0,2.7,100,0.00,,,2.47,VWS V13.01,2013-02-19 23:23:00,
2013-02-19 18:28:00,43.5,43.5,29.68,SW,217,0.0,2.7,100,0.00,,,2.47,VWS V13.01,2013-02-19 23:28:00,
2013-02-19 18:33:00,43.5,43.5,29.65,SW,223,0.0,0.0,100,0.00,,,2.47,VWS V13.01,2013-02-19 23:33:00,
2013-02-19 18:38:00,43.3,43.3,29.65,SW,223,0.0,0.0,100,0.00,,,2.47,VWS V13.01,2013-02-19 23:38:00,
2013-02-19 18:43:00,43.5,43.5,29.65,SW,223,2.2,2.2,100,0.00,,,2.47,VWS V13.01,2013-02-19 23:43:00,
2013-02-19 18:48:00,43.3,43.3,29.65,SW,223,0.0,0.0,100,0.00,,,2.47,VWS V13.01,2013-02-19 23:48:00,
2013-02-19 18:53:00,43.3,43.3,29.65,SW,223,0.0,2.2,100,0.00,,,2.47,VWS V13.01,2013-02-19 23:53:00,
2013-02-19 18:58:00,43.3,43.3,29.65,SW,223,0.0,0.0,100,0.00,,,2.47,VWS V13.01,2013-02-19 23:58:00,
2013-02-19 19:03:00,43.3,43.3,29.65,SW,223,0.0,0.0,100,0.00,,,2.47,VWS V13.01,2013-02-20 00:03:00,
2013-02-19 19:08:00,43.3,43.3,29.65,SW,223,0.0,0.0,100,0.00,,,2.47,VWS V13.01,2013-02-20 00:08:00,
2013-02-19 19:13:00,43.3,43.3,29.65,SW,223,0.0,3.1,100,0.00,,,2.47,VWS V13.01,2013-02-20 00:13:00,
2013-02-19 19:18:00,43.3,43.3,29.65,SW,223,0.0,0.0,100,0.00,,,2.47,VWS V13.01,2013-02-20 00:18:00,
2013-02-19 19:23:00,43.5,43.5,29.65,SW,223,0.0,0.0,100,0.00,,,2.47,VWS V13.01,2013-02-20 00:23:00,
2013-02-19 19:28:00,43.3,43.3,29.65,SSE,168,0.0,3.1,100,0.00,,,2.47,VWS V13.01,2013-02-20 00:28:00,
2013-02-19 19:33:00,43.3,43.3,29.65,SW,218,0.0,0.0,100,0.00,,,2.47,VWS V13.01,2013-02-20 00:33:00,
2013-02-19 19:38:00,43.3,43.3,29.65,SW,218,0.0,0.0,100,0.00,,,2.47,VWS V13.01,2013-02-20 00:38:00,
2013-02-19 19:43:00,43.3,43.3,29.65,SW,218,0.0,2.2,100,0.00,,,2.47,VWS V13.01,2013-02-20 00:43:00,
2013-02-19 19:48:00,43.3,43.3,29.65,SW,217,0.0,0.0,100,0.00,,,2.47,VWS V13.01,2013-02-20 00:48:00,
2013-02-19 19:53:00,43.3,43.3,29.65,SW,215,0.0,2.7,100,0.00,,,2.47,VWS V13.01,2013-02-20 00:53:00,
2013-02-19 19:58:00,43.5,43.5,29.65,SSW,193,2.2,2.7,100,0.00,,,2.47,VWS V13.01,2013-02-20 00:58:00,
2013-02-19 20:03:00,43.3,43.3,29.65,SSW,198,0.0,3.1,100,0.00,,,2.47,VWS V13.01,2013-02-20 01:03:00,
2013-02-19 20:08:00,43.2,43.2,29.65,SW,225,0.0,3.1,100,0.00,,,2.47,VWS V13.01,2013-02-20 01:08:00,
2013-02-19 20:12:00,43.2,43.2,29.65,SW,232,0.0,2.2,100,0.00,,,2.47,VWS V13.01,2013-02-20 01:12:00,
2013-02-19 20:17:00,43.0,43.0,29.65,SW,232,0.0,2.7,100,0.00,,,2.47,VWS V13.01,2013-02-20 01:17:00,
2013-02-19 20:22:00,42.8,42.8,29.65,SSE,150,0.0,2.2,100,0.00,,,2.47,VWS V13.01,2013-02-20 01:22:00,
2013-02-19 20:27:00,42.6,42.6,29.65,SW,217,0.0,2.2,100,0.00,,,2.47,VWS V13.01,2013-02-20 01:27:00,
2013-02-19 20:32:00,42.8,42.8,29.65,SW,217,2.2,2.2,100,0.00,,,2.47,VWS V13.01,2013-02-20 01:32:00,
2013-02-19 20:37:00,42.4,42.4,29.65,SW,217,0.0,0.0,100,0.00,,,2.47,VWS V13.01,2013-02-20 01:37:00,
2013-02-19 20:42:00,42.4,42.4,29.65,South,177,0.0,2.2,100,0.00,,,2.47,VWS V13.01,2013-02-20 01:42:00,
2013-02-19 20:47:00,42.3,42.3,29.65,SSW,192,0.0,2.7,100,0.00,,,2.47,VWS V13.01,2013-02-20 01:47:00,
2013-02-19 20:52:00,42.1,42.1,29.65,SW,214,0.0,3.1,100,0.00,,,2.47,VWS V13.01,2013-02-20 01:52:00,
2013-02-19 20:57:00,41.9,41.9,29.65,SW,215,0.0,2.7,100,0.00,,,2.47,VWS V13.01,2013-02-20 01:57:00,
2013-02-19 21:02:00,41.9,41.6,29.65,SW,215,0.0,2.7,99,0.00,,,2.47,VWS V13.01,2013-02-20 02:02:00,
2013-02-19 21:07:00,41.7,41.2,29.65,SW,215,2.2,2.2,98,0.00,,,2.47,VWS V13.01,2013-02-20 02:07:00,
2013-02-19 21:12:00,41.7,40.9,29.65,WNW,282,0.0,3.6,97,0.00,,,2.47,VWS V13.01,2013-02-20 02:12:00,
2013-02-19 21:17:00,41.7,40.4,29.65,SW,215,0.0,0.0,95,0.00,,,2.47,VWS V13.01,2013-02-20 02:17:00,
2013-02-19 21:22:00,41.5,39.4,29.65,SW,215,0.0,3.1,92,0.00,,,2.47,VWS V13.01,2013-02-20 02:22:00,
2013-02-19 21:27:00,41.4,37.8,29.65,SW,226,0.0,0.0,87,0.00,,,2.47,VWS V13.01,2013-02-20 02:27:00,
2013-02-19 21:32:00,41.2,36.4,29.65,West,275,0.0,2.2,83,0.00,,,2.47,VWS V13.01,2013-02-20 02:32:00,
2013-02-19 21:37:00,41.0,35.0,29.65,SSE,163,0.0,0.0,79,0.00,,,2.47,VWS V13.01,2013-02-20 02:37:00,
2013-02-19 21:42:00,40.6,34.7,29.65,SW,215,2.7,3.6,79,0.00,,,2.47,VWS V13.01,2013-02-20 02:42:00,
2013-02-19 21:47:00,40.5,33.5,29.65,SW,217,0.0,4.0,76,0.00,,,2.47,VWS V13.01,2013-02-20 02:47:00,
2013-02-19 21:52:00,40.3,32.3,29.65,SW,215,4.0,4.0,73,0.00,,,2.47,VWS V13.01,2013-02-20 02:52:00,
2013-02-19 21:57:00,40.1,31.1,29.65,SSW,205,0.0,3.6,70,0.00,,,2.47,VWS V13.01,2013-02-20 02:57:00,
2013-02-19 22:02:00,40.1,31.1,29.65,WNW,301,2.7,2.7,70,0.00,,,2.47,VWS V13.01,2013-02-20 03:02:00,
2013-02-19 22:07:00,39.9,30.6,29.65,SSE,150,0.0,5.8,69,0.00,,,2.47,VWS V13.01,2013-02-20 03:07:00,
2013-02-19 22:12:00,39.7,30.4,29.65,SSE,152,0.0,2.2,69,0.00,,,2.47,VWS V13.01,2013-02-20 03:12:00,
2013-02-19 22:17:00,39.6,30.2,29.65,SW,220,0.0,3.1,69,0.00,,,2.47,VWS V13.01,2013-02-20 03:17:00,
2013-02-19 22:22:00,39.4,29.4,29.65,South,191,0.0,5.4,67,0.00,,,2.47,VWS V13.01,2013-02-20 03:22:00,
2013-02-19 22:27:00,39.2,28.8,29.65,West,266,2.2,3.1,66,0.00,,,2.47,VWS V13.01,2013-02-20 03:27:00,
2013-02-19 22:32:00,39.0,29.7,29.68,SSW,212,2.7,2.7,69,0.00,,,2.47,VWS V13.01,2013-02-20 03:32:00,
2013-02-19 22:37:00,38.8,29.2,29.68,SW,230,0.0,5.4,68,0.00,,,2.47,VWS V13.01,2013-02-20 03:37:00,
2013-02-19 22:42:00,38.8,29.9,29.68,SSW,201,0.0,2.7,70,0.00,,,2.47,VWS V13.01,2013-02-20 03:42:00,
2013-02-19 22:47:00,38.7,29.0,29.68,SSW,210,3.1,4.0,68,0.00,,,2.47,VWS V13.01,2013-02-20 03:47:00,
2013-02-19 22:52:00,38.5,27.4,29.68,SSW,197,4.9,7.2,64,0.00,,,2.47,VWS V13.01,2013-02-20 03:52:00,
2013-02-19 22:57:00,38.5,27.0,29.68,SW,225,2.2,4.9,63,0.00,,,2.47,VWS V13.01,2013-02-20 03:57:00,
2013-02-19 23:02:00,38.3,27.2,29.68,SW,236,0.0,3.1,64,0.00,,,2.47,VWS V13.01,2013-02-20 04:02:00,
2013-02-19 23:07:00,38.1,27.0,29.68,SW,226,2.7,3.1,64,0.00,,,2.47,VWS V13.01,2013-02-20 04:07:00,
2013-02-19 23:12:00,37.8,26.3,29.68,SW,216,3.6,3.6,63,0.00,,,2.47,VWS V13.01,2013-02-20 04:12:00,
2013-02-19 23:17:00,37.6,25.8,29.68,SW,229,2.2,4.9,62,0.00,,,2.47,VWS V13.01,2013-02-20 04:17:00,
2013-02-19 23:22:00,37.6,25.8,29.68,SW,227,0.0,2.2,62,0.00,,,2.47,VWS V13.01,2013-02-20 04:22:00,
2013-02-19 23:27:00,37.4,25.6,29.68,SSE,156,3.6,5.8,62,0.00,,,2.47,VWS V13.01,2013-02-20 04:27:00,
2013-02-19 23:32:00,37.4,25.2,29.68,South,184,0.0,4.9,61,0.00,,,2.47,VWS V13.01,2013-02-20 04:32:00,
2013-02-19 23:37:00,37.2,25.0,29.68,SE,137,3.1,4.0,61,0.00,,,2.47,VWS V13.01,2013-02-20 04:37:00,
2013-02-19 23:42:00,37.0,24.9,29.68,South,183,2.7,3.6,61,0.00,,,2.47,VWS V13.01,2013-02-20 04:42:00,
2013-02-19 23:47:00,37.0,24.5,29.68,SE,131,2.7,4.0,60,0.00,,,2.47,VWS V13.01,2013-02-20 04:47:00,
2013-02-19 23:52:00,37.0,22.4,29.68,WSW,251,4.0,4.0,55,0.00,,,2.47,VWS V13.01,2013-02-20 04:52:00,
2013-02-19 23:57:00,37.0,22.4,29.68,WSW,258,3.1,4.9,55,0.00,,,2.47,VWS V13.01,2013-02-20 04:57:00,